Location: Hohe Wand Waldeggerhaus
(47.8500°N, 16.0440°E)
Time: 08:28:10
(UTC+02:00)

Envisat - Pass Details

Date: 26 May 2024
Orbit: 762 x 764 km, 98.3° (Epoch: 13 June)

Event Time Altitude Azimuth Distance (km) Brightness Sun altitude
Rises 03:18:35 0° 24° (NNE) 3,238 8.0 -13.6°
Reaches altitude 10° 03:21:18 10° 38° (NE) 2,307 7.0 -13.4°
Maximum altitude 03:25:27 25° 93° (E) 1,514 4.9 -13.0°
Drops below altitude 10° 03:29:33 10° 148° (SSE) 2,292 5.3 -12.5°
Sets 03:32:14 0° 161° (SSE) 3,212 5.9 -12.3°
